STARLINK-35475, 65865

Orbit data source: Space-Track

STARLINK-35475, 65865 is a payload satellite owned by SpaceX/Seattle (US) in LEO that was launched on Fri, 03 Oct 2025 UTC via an FALCON 9 launch vehicle from the Air Force Western Test Range (AFWTR). Payload-class satellites include a variety of spacecraft equipped with specific instruments for various scientific and technological missions. These include communications satellites like Starlink; space stations such as the ISS; scientific satellites like the Hubble; Earth observation satellites from companies like Planet Labs, Umbra, and HawkEye 360; GPS; miniature CubeSats for education and research; and military/defense satellites.

Loading next visibility...
Identifier
65865, 2025-223M
Orbit
LEO
Country
Flag of USUS
Related business
Manufacturer
SpaceX/Seattle
Mission
Operational spacecraft
Bus & Motor
STARLINK V2MO, Unknown motor
Mass
575 kg wet, ~530 kg dry
Launch date (UTC)
2025-10-03 (2 weeks ago)
Launch vehicle
FALCON 9
Launch site
Air Force Western Test Range (AFWTR)
Object type
Payload
Rocket body
Debris
Shape & HBR
Unknown
Radar Cross Section
RCS unknown

Expand to show TLE details & history
Last TLE update: 12 hours ago

TLE from 12 hours ago
0 STARLINK-35475
1 65865U 25223M   25290.95475964 -.00165667  00000-0 -13114-2 0  9996
2 65865  53.1525 241.3309 0002633 104.4713 255.6598 15.71093433  2298
Epoch: 2025-10-17T22:54Z
TLE epoch observation values (Epoch: 2025-10-17T22:54:51.232Z)
Latitude
-0.00002°
Longitude
-129.0753°
Altitude
357.125 km
Speed
7.696 km/s
True Right ascension
16h 05m 19s
True Declination
0° 00' 00"
Sunlit
Object was in daylight at epoch
Visualization orbit readout
Latitude
Unknown
Longitude
Unknown
Altitude
Unknown
Speed
Unknown
Apparent Right ascension
Unknown
Apparent Declination
Unknown
Sunlit
N/A
Visualization observer readout
Local Sidereal Time
05:55:48
Azimuth
Unknown
Elevation
Unknown
Doppler factor
Unknown
Orbital elements
Apogee altitude
357.806 km
Perigee altitude
354.26 km
Semi-major axis
6,734.17 km
Eccentricity
0.00026
Inclination
53.1525°
RAAN
241.3309°
Arg. of periapsis
104.4713°
True anomaly
255.63057°
Mean anomaly
255.6598°
Eccentric anomaly
255.64519°
Mean motion
3.92751 °/min
Orbital period
91.66 mins
BSTAR
-0.0013114
Loading maneuver chart data...
Computing Atmospheric mass density...
Loading historical data...
Loading historical data...
Loading historical data...
Loading historical data...
Loading historical data...
Loading historical data...
Loading historical data...

Documentation

Showing up to 5 results
|